Погода в Камышине

Хотите узнать прогноз погоды в Камышине? Тогда Вам сюда: Погода в Камышине

Поиск расширенной информации на нашем сайте:

Полезная информация:

Новости сайта



02.01.2020
Опубликован Долгосрочный прогноз погоды по городам России и ближнего зарубежья на январь 2020 года.
Карты: Прогноз на январь и февраль 2020 года, Сравнение прогнозируемой аномалии приземной температуры воздуха на январь 2020 года по разным моделям.




Погода в Камышине - сегодня

Время (UTC), дата Ветер
(°,м/с) 
Видим.   Явления Облачность Т
(°С)
Тd
(°С)
f(%) Тe
(°С)
Pmin
(гПа)
dP
(гПа)
Po
(мм)
O2
(г/м3)
Тmin Tmax R s Состояние
почвы
09 04.06.20 250 (З) 5{10}  20000 м    4/0 
[Cu med, cong]
+23.6 +11.4 46 +27  1009.8  1.3  747  275           
12 04.06.20 220 (ЮЗ) 20000 м    4/4 1000 м 
[Cu med, cong]
+24.2 +10.3 41 +26  1010.4  0.6  747  275           
15 04.06.20 230 (ЮЗ) 20000 м    4/3 1000 м верхняя 
[Cu med, cong|Ci sp]
+24.5 +8.4 36 +25  1011.1  0.7  748  275    +25       
18 04.06.20 200 (Ю) 20000 м    4/0 верхняя 
[Ci fib]
+20.1 +9.2 49 +20  1012.5  1.2  749  279           
21 04.06.20 260 (З) 20000 м    ясно 
+17.3 +8.1 55 +18  1014.2  1.5  750  283           
00 05.06.20 310 (СЗ) 20000 м    3/0 средняя 
[Ac lent]
+15.9 +8.4 61 +16  1014.7  0.4  750  284           
03 05.06.20 310 (СЗ) 20000 м    8/0 средняя 
[Ac trans]
+18.4 +8.8 54 +19  1015.2  0.6  751  282  +15.4        влажная 
06 05.06.20 280 (З) 20000 м    10/0 средняя 
[Ac cuf]
+18.6 +10.8 60 +21  1016.6  0.6  752  282           
09 05.06.20 280 (З) 10 км  в посл. час ливневой дождь  10/3 600 м кучево-дожд., средняя 
[Cb calv|Ac und]
+17 +12.6 75 +22  1017.6  0.9  752  283           
12 05.06.20 240 (ЮЗ) 20000 м  {ливн. осадки}  8/3 1000 м средняя, верхняя 
[Cu med, cong|Ac trans|Ci fib]
+21.6 +12.5 56 +26  1016.4  -0.9  752  278           
15 05.06.20 240 (ЮЗ) 3{10}  20000 м    6/3 1000 м средняя, верхняя 
[Cu med, cong|Ac cuf|Ci ing]
+21.6 +9.8 47 +22  1016  -0.4  751  279    +22.6     
18 05.06.20 260 (З) 20000 м    3/0 средняя 
[Ac cuf]
+17.6 +11.3 67 +21  1017.4  1.1  752  283           
21 05.06.20 230 (ЮЗ) 20000 м    4/0 верхняя 
[Ci fib]
+15.6 +10.7 73 +18  1017.8  0.4  752  285           
00 06.06.20 230 (ЮЗ) 20000 м    3/0 средняя 
[Ac trans]
+14.9 +8.9 67 +15  1018.1  0.2  753  286           
03 06.06.20 280 (З) 20000 м    8/0 средняя, верхняя 
[Ac trans|Ci sp]
+18.2 +9.9 58 +20  1018.6  0.7  753  283  +13.4        влажная 
06 06.06.20 290 (З) 10 км    9/0 средняя 
[Ac trans]
+21.9 +10.8 49 +24  1019.3  0.9  754  279           
09 06.06.20 160 (Ю) 20000 м    9/3 1000 м средняя 
[Cu med, cong|Ac trans]
+23.7 +9.1 39 +24  1019.3  754  278           
12 06.06.20 240 (ЮЗ) 5{11}  20000 м    5/3 1000 м средняя, верхняя 
[Cu med, cong|Ac lent|Ci fib]
+26.2 +6.7 29 +26  1018.1  -1  753  276           
15 06.06.20 260 (З) 3{10}  20000 м    5/4 1000 м верхняя 
[Cu med, cong|Ci fib]
+26.8 +8.5 31 +27  1017.4  -0.7  752  275    +27.3       
18 06.06.20 240 (ЮЗ) 20000 м    3/3 1000 м 
[Sc diur, vesp]
+20.8 +10 50 +22  1018.4  0.7  753  280           
21 06.06.20 250 (З) 20000 м    8/0 средняя 
[Ac trans]
+19.9 +10.2 54 +21  1018.3  -0.2  753  281           
00 07.06.20 260 (З) 20000 м    6/0 средняя, верхняя 
[Ac trans|Ci fib]
+18.2 +10.2 60 +19  1018.5  0.2  753  283           
03 07.06.20 300 (СЗ) 10 км    9/0 средняя, верхняя 
[Ac lent|Ci sp]
+20.3 +10.2 52 +22  1018.9  0.5  753  281  +18        сухая 
06 07.06.20 290 (З) 20000 м    4/0 средняя, верхняя 
[Ac trans|Ci fib]
+26.2 +11 39 +29  1018.9  0.3  754  275           
09 07.06.20 190 (Ю) 20000 м    4/4 1000 м 
[Cu med, cong]
+28.3 +10.6 33 +30  1018.7  0.1  754  273           
Время (UTC), дата Ветер
(°,м/с) 
Видим.   Явления Облачность Т
(°С)
Тd
(°С)
f(%) Тe
(°С)
Pmin
(гПа)
dP
(гПа)
Po
(мм)
O2
(г/м3)
Тmin Tmax R s Состояние
почвы

Для получения пояснительной информации подведите курсор к названию столбца.

ПОГОДА в Камышине - архив

Всё, что Вы хотите узнать о погоде в Камышине - удобно и подробно!

Выберите нужную дату (начиная с 1 января 2019* года) и нажмите кнопку "Найти".
Будут отображены архивные сводки погоды по пункту Камышин, начиная с указанной даты.


Отображать данные в формате CSV (для использования в таблицах Excel)


Внимание! Наш архив погоды предназначен исключительно для личного некоммерческого использования в познавательных целях. Если Вам необходимы официальные справки о состоянии погоды (для производственных, юридических, коммерческих и т.п. целей), обращайтесь в органы Росгидромета.

*Примечание: данная дата относится к архиву по метеостанциям СССР (Россия, СНГ, Балтия).
Архив по метеостанциям Зарубежной Европы и Азии (кроме Китая) хранится 10 дней, по другим регионам земного шара (Китай, Африка, Америка, Австралия, Океания) - 1 день.

Камышин - район местоположения метеостанции


Название, широта, долгота, высота метеостанции:
Камышин 50.1°ш. 45.4°д. 119 м над ур. моря [Российская Федерация]

Дополнительная информация

В oтличие oт бoльшинства пoгoдных сайтoв мы публикуем пoдрoбную метеoинфoрмацию в детальнoм прoфессиoнальнoм фoрмате.

Характеристики температуры и влажнoсти вoздуха измеряются на высoте 2 м в тени вдали oт зданий и деревьев.
Скoрoсть ветра измеряется на высoте 10 м (на урoвне рoста челoвека скoрoсть ветра ниже в 1.5-2 раза). Если метеoстанция нахoдится в гoрoде или в лесу, тo скoрoсть ветра занижена на 2-4 м/с пo сравнению с oткрытым местoм. Скoрoсть ветра над акватoриями крупных рек и oзёр, а также на вершинах хoлмoв на 2-5 м/с выше, чем в oбычных услoвиях.
Атмoсфернoе давление в разных тoчках местнoсти мoжет значительнo oтличаться oт давления на метеoстанции, в зависимoсти oт услoвий рельефа (при пoдъёме на 10 м давление пoнижается примернo на 1 мм рт.ст.).